Theta_e
322 322 322 323 326 326 326 328 328 323 320 322 324 325 322 323 323 324 324 324 324 324 324 324 325 327 327 327 327 327 327 329 330 329 327 326 326 327 327 327 328 329 329 329
323 323 320 322 323 323 327 326 326 323 320 319 322 322 321 321 321 321 322 322 322 322 321 321 321 321 321 321 321 320 320 320 319 319 319 319 320 321 324 326 325 326 325 325
324 321 321 323 323 322 324 327 325 324 320 319 319 320 319 319 320 320 320 319 319 319 319 319 319 319 319 319 318 317 316 316 316 317 319 319 320 321 322 323 324 322 322 321
321 317 320 322 324 322 323 321 322 323 321 322 320 325 322 321 317 317 318 318 319 318 317 315 314 313 313 312 312 312 312 313 313 315 317 318 319 319 319 320 320 320 320 318
319 317 318 320 321 320 322 322 322 322 323 321 321 320 319 319 316 316 317 316 314 314 313 313 312 312 312 312 313 313 313 312 312 314 316 317 317 317 318 318 318 317 316 315
316 315 316 317 317 319 318 319 320 321 322 324 321 321 319 318 318 315 313 313 314 313 312 312 312 313 313 314 314 314 314 313 312 313 314 315 315 315 315 315 315 314 314 313
317 317 315 317 318 318 318 317 320 318 317 319 317 321 320 314 313 311 312 313 313 313 313 311 310 310 309 310 311 313 314 314 314 314 314 314 314 314 313 313 312 312 311 311
317 317 316 316 317 318 318 316 319 320 319 315 311 312 312 314 313 312 313 313 312 313 311 311 311 311 310 310 309 309 311 313 313 314 314 313 313 312 311 311 311 310 310 310
315 316 314 316 315 316 318 318 314 314 310 312 312 313 314 313 312 312 313 313 312 313 312 311 311 311 311 311 310 309 309 310 311 312 312 312 311 311 311 310 310 309 309 309
314 315 315 314 315 315 316 314 314 314 313 312 311 312 313 313 312 311 311 312 312 313 313 311 311 311 311 311 310 308 308 308 309 309 309 309 309 309 309 309 309 309 309 308
313 313 314 314 315 316 316 316 316 315 315 316 313 311 308 311 310 310 311 313 312 312 312 311 311 311 311 311 310 308 307 307 307 307 307 307 307 307 306 306 306 307 306 306
313 313 315 315 312 312 314 315 315 313 313 312 314 313 309 308 309 312 311 312 312 312 312 312 311 311 311 311 309 308 308 306 306 306 305 305 305 305 305 305 305 305 305 306
313 314 315 314 312 312 315 314 314 314 311 312 311 312 309 308 309 309 310 310 310 311 311 312 312 311 311 310 309 308 307 306 305 305 305 305 304 304 304 304 304 303 303 303
312 314 314 315 313 312 314 314 314 314 310 312 312 312 311 308 309 311 312 312 312 312 312 311 311 311 310 308 308 307 305 304 304 303 303 303 303 303 303 302 302 302 302 302
310 312 310 311 310 310 312 313 313 314 313 312 314 312 313 312 311 312 312 312 312 312 311 311 310 310 308 307 307 305 304 303 303 302 302 302 301 301 301 301 300 300 300 300
308 307 308 307 309 309 309 310 311 312 312 312 312 313 310 312 311 312 312 312 312 312 311 310 310 308 307 306 304 303 303 302 302 301 301 301 300 300 299 299 299 298 298 298
309 307 304 305 306 307 299 306 309 310 310 310 311 311 310 309 311 312 312 312 312 311 310 309 307 306 304 304 303 301 301 301 301 300 299 299 299 298 298 298 298 298 298 297
307 305 303 297 296 298 304 304 306 307 307 307 308 309 309 309 311 311 310 311 310 309 307 306 304 302 301 301 301 301 300 299 299 298 298 298 298 297 297 297 297 297 297 297
304 304 296 297 296 301 300 301 304 307 306 306 306 306 308 309 310 303 306 307 306 306 304 302 301 300 300 300 299 299 298 298 297 297 297 297 297 296 296 296 295 295 294 294
301 301 298 294 294 294 303 305 306 306 303 304 305 306 308 309 307 300 301 301 301 300 300 300 300 299 299 298 298 297 297 297 297 296 296 295 294 294 293 293 293 293 293 292
293 294 292 293 293 297 301 302 306 300 300 302 303 305 306 303 302 301 299 299 300 300 300 299 298 298 297 297 297 296 296 295 294 294 293 293 292 291 291 291 290 290 290 290
295 293 290 292 293 295 302 302 306 303 302 302 301 301 302 301 299 299 299 299 299 299 298 297 297 296 296 296 295 294 293 293 292 291 290 290 289 289 289 289 288 288 288 288
297 299 297 298 297 301 302 302 303 303 302 302 302 300 300 300 299 299 298 298 297 296 296 296 296 295 295 294 293 292 291 290 289 289 288 288 288 287 287 287 287 287 286 286
299 300 298 301 300 301 302 302 301 301 301 302 301 301 300 299 298 298 297 297 296 296 296 295 295 295 294 292 291 289 289 288 288 287 286 286 286 286 286 285 285 285 285 285
298 299 298 298 300 301 301 302 303 303 303 302 301 300 300 298 298 297 297 296 296 295 295 294 294 293 291 289 288 287 287 286 286 285 285 285 285 284 284 284 284 283 283 282
299 297 298 299 302 301 301 300 300 299 299 301 301 299 298 298 297 296 296 295 295 294 294 293 292 289 288 287 287 286 286 285 285 285 284 284 284 283 283 283 283 283 282 282
Wind_Speed
16 7 10 9 13 5 3 4 5 9 6 4 2 4 8 13 9 3 3 2 5 7 7 7 7 9 13 15 17 18 19 20 22 23 24 25 27 26 27 25 24 25 25 25
3 12 11 9 13 8 6 5 2 2 4 4 4 5 6 5 5 5 7 7 8 9 7 7 7 8 8 10 14 16 18 21 22 23 24 24 24 24 23 22 23 23 25 26
6 2 6 8 8 10 9 9 6 3 2 4 3 7 8 7 15 12 13 13 13 11 10 12 15 14 18 19 21 22 22 23 22 21 22 22 23 23 23 21 23 25 25 23
2 3 6 6 11 6 8 2 2 9 2 1 5 4 7 10 7 6 11 14 12 7 8 7 11 12 13 15 14 16 17 18 20 20 22 20 20 18 15 17 19 19 20 19
5 7 8 5 7 7 2 9 5 1 2 5 4 1 6 3 6 7 13 6 7 3 3 3 5 6 7 7 8 11 12 12 13 13 13 15 16 15 15 16 18 18 18 19
5 2 4 2 4 4 7 10 8 5 3 2 6 3 4 3 7 4 10 10 6 2 2 4 7 8 8 7 7 8 9 9 8 8 8 9 10 12 13 13 13 15 16 18
8 4 2 7 7 3 3 7 2 2 1 4 2 6 9 1 5 7 11 11 8 6 8 14 15 15 14 15 15 15 14 11 9 7 6 6 7 8 9 11 13 14 16 18
7 3 6 4 4 8 8 6 4 5 4 3 4 4 4 1 10 16 14 9 9 9 14 15 15 16 16 15 14 13 12 10 9 7 7 7 8 9 10 12 15 16 17 18
5 4 3 7 2 9 6 5 3 4 2 3 4 4 4 5 6 11 7 10 10 15 14 13 14 14 14 14 12 11 10 10 9 8 8 8 10 12 14 15 16 17 18 19
3 5 4 3 2 5 3 6 3 2 3 2 3 3 4 5 5 8 8 9 15 17 14 11 9 12 14 16 13 10 10 11 11 12 13 14 15 16 18 19 19 20 20 21
5 5 3 5 3 6 3 4 1 4 2 3 1 3 4 4 5 9 14 14 16 16 11 6 3 12 10 12 10 10 11 12 12 13 14 15 16 17 18 20 21 22 23 25
3 4 4 3 3 4 5 6 4 3 3 1 3 4 3 5 9 20 16 11 11 11 8 2 8 12 8 6 6 9 11 14 15 15 14 15 15 16 17 19 20 22 23 23
2 3 5 4 4 2 2 4 3 5 3 5 5 3 3 8 10 11 10 4 4 3 7 10 9 9 7 9 9 10 12 12 12 11 11 12 14 16 18 20 21 22 24 24
7 3 2 3 4 2 5 7 7 4 3 3 5 1 3 4 4 2 1 1 8 8 10 16 12 7 5 8 11 11 9 7 8 10 11 13 15 17 19 21 23 24 26 27
3 3 4 8 4 5 3 5 8 10 6 3 2 6 4 3 4 13 14 15 11 10 9 6 6 8 8 10 12 11 9 10 13 15 17 19 20 22 23 25 27 28 29 30
2 2 2 3 5 4 1 4 5 4 5 6 6 13 7 22 25 22 27 27 26 17 8 8 9 9 11 11 9 10 12 16 19 22 23 25 27 30 31 32 32 32 33 33
2 3 2 2 4 2 4 7 10 6 6 7 7 11 13 8 13 16 20 21 12 6 6 7 9 9 8 9 12 15 19 22 25 27 29 31 33 34 34 35 35 35 36 36
6 3 2 2 3 1 5 2 2 8 9 9 11 12 14 17 13 9 3 4 4 5 7 6 5 6 10 13 17 20 23 26 29 31 32 32 33 35 35 36 36 36 35 35
6 3 2 4 3 5 6 4 5 6 6 5 8 10 20 17 6 6 1 5 8 7 5 4 6 11 16 20 23 27 28 28 28 29 31 33 34 35 35 34 33 32 33 33
3 5 3 2 4 6 2 3 5 7 4 7 12 8 8 6 3 2 4 6 7 4 2 6 12 17 22 24 25 25 26 28 29 30 30 28 28 29 31 31 32 33 33 34
3 2 4 3 2 6 5 3 3 6 4 4 6 6 4 3 2 9 6 4 2 5 11 15 18 19 21 23 24 26 26 25 24 24 26 28 28 29 30 30 30 31 31 32
5 5 3 1 1 7 9 3 6 2 3 4 5 5 7 7 6 5 4 7 10 14 15 15 16 18 21 23 23 21 22 23 25 25 26 26 27 27 28 29 29 29 30 31
2 5 4 8 6 3 8 5 5 5 2 4 5 6 6 6 7 8 10 12 12 13 14 16 18 19 20 19 22 23 23 24 24 25 25 25 25 25 25 27 28 29 29 31
4 7 2 2 6 15 21 19 18 16 17 11 9 9 9 8 10 12 13 14 15 16 17 18 19 17 19 21 22 23 24 23 23 23 23 23 23 24 25 26 28 30 31 32
3 6 6 5 11 18 23 22 19 16 16 15 15 13 12 12 13 15 15 16 17 17 18 18 17 20 20 20 21 22 22 21 21 22 22 23 24 25 26 27 29 30 30 30
11 7 5 5 10 9 2 2 5 8 13 14 15 14 13 14 14 15 16 17 17 18 18 18 20 19 19 20 19 19 20 22 22 22 23 23 25 27 28 31 32 29 29 28
Wind_Direction
200 186 191 219 190 232 276 353 354 61 35 39 234 233 163 147 131 172 258 163 183 212 221 216 215 213 231 247 255 253 250 246 251 262 266 268 269 268 269 269 267 260 256 261
151 211 193 92 140 149 159 173 291 331 23 356 309 256 261 278 154 221 252 240 230 237 242 246 251 248 244 241 252 260 267 268 265 263 265 267 267 266 262 261 264 267 269 268
185 162 192 168 216 163 169 198 200 293 143 207 330 274 246 241 225 220 234 243 247 257 263 252 244 242 249 258 264 271 269 271 271 264 257 253 257 261 261 258 264 270 271 274
228 153 154 173 181 182 181 197 122 173 199 189 134 292 270 230 160 183 232 240 251 245 222 258 273 275 276 279 280 283 278 272 268 263 261 258 256 255 257 264 271 281 284 282
151 155 157 156 173 176 121 101 172 243 22 1 203 179 254 260 162 191 215 190 146 170 258 292 308 303 287 302 309 310 305 291 285 279 272 269 271 270 270 269 276 282 284 283
96 87 104 141 86 119 139 109 97 76 34 267 233 214 249 229 207 130 98 104 112 141 81 55 70 66 51 30 10 357 352 342 321 299 287 279 278 281 282 284 285 287 287 288
120 93 72 142 95 103 160 142 97 76 147 220 145 213 244 275 65 113 142 126 128 115 112 101 87 75 62 49 40 33 29 24 15 358 327 303 292 289 291 293 292 292 295 297
150 156 192 175 161 165 186 184 158 171 182 207 350 240 256 39 70 118 126 123 140 132 120 100 80 64 51 40 31 25 20 16 13 5 353 339 323 314 310 305 301 299 297 298
146 88 146 148 79 138 185 213 16 98 45 69 193 267 318 229 129 118 153 162 166 158 137 105 76 57 47 33 20 6 354 348 349 343 335 326 321 318 316 316 317 316 314 311
97 118 140 56 84 66 136 134 80 345 131 203 239 254 222 202 207 166 149 166 157 159 158 134 78 39 24 11 2 353 343 335 330 325 324 323 322 319 318 315 314 311 309 309
111 114 137 136 240 153 130 158 157 135 112 168 160 230 316 60 270 164 170 175 168 164 167 169 40 359 358 352 339 327 324 318 317 322 326 323 319 317 316 314 314 311 311 312
14 103 123 121 8 355 218 161 144 128 241 238 136 266 25 37 34 110 92 89 118 134 141 208 337 340 331 309 309 309 315 316 318 319 319 319 319 322 322 320 319 317 316 314
152 119 107 91 3 22 216 207 197 125 84 201 148 256 6 64 66 63 74 71 121 119 329 313 323 312 292 295 304 314 320 311 309 315 325 327 327 330 328 325 323 320 318 318
50 69 66 115 101 139 170 193 206 196 146 174 211 76 93 108 125 121 78 284 312 315 308 307 302 292 276 302 319 319 310 305 315 320 323 322 322 322 319 314 312 310 309 308
77 90 92 101 70 33 61 175 207 217 229 201 77 230 266 324 295 297 301 291 281 281 306 285 285 296 296 309 315 313 312 317 321 323 322 321 320 318 315 312 310 308 307 307
357 123 94 60 120 103 135 269 266 272 259 279 275 268 267 274 274 272 272 276 281 288 313 299 292 290 301 306 309 310 314 317 318 319 319 318 316 315 313 312 311 310 310 309
106 125 98 122 353 73 338 219 209 210 207 203 229 241 253 263 258 253 260 260 245 244 243 260 281 290 293 301 306 312 315 317 316 314 314 314 313 312 312 312 312 312 312 311
116 90 61 168 23 54 236 299 241 228 237 237 247 258 265 266 283 292 272 201 186 199 219 253 262 285 299 303 306 307 307 307 307 307 308 308 307 307 308 308 309 311 312 313
40 83 60 124 197 289 323 229 171 172 263 248 258 260 266 289 196 73 116 186 184 202 215 234 288 304 306 305 305 304 304 303 303 305 306 307 308 310 313 315 318 320 319 319
50 23 101 55 137 208 256 348 19 96 291 9 26 34 29 133 172 147 165 156 163 167 241 297 301 301 299 299 299 300 301 302 305 306 310 313 316 316 317 317 317 317 317 317
81 39 151 183 210 287 263 254 13 104 235 53 58 53 41 106 140 158 166 176 246 292 300 297 296 296 296 298 300 303 305 309 312 314 314 315 316 316 316 315 316 316 316 316
156 139 180 95 90 286 200 80 180 150 87 102 75 78 98 124 140 169 222 269 284 289 291 294 297 299 301 304 305 307 307 310 312 313 315 315 314 314 316 318 320 321 322 322
225 181 182 184 209 221 192 218 236 292 234 212 215 202 199 206 234 255 276 286 295 296 297 300 303 304 304 305 306 307 309 311 312 312 312 314 317 319 321 324 326 328 331 329
240 256 220 91 254 245 255 255 263 274 284 269 242 241 254 274 285 293 297 295 294 297 301 305 306 302 303 304 306 309 310 309 309 312 316 319 321 324 328 330 331 331 332 331
205 152 196 259 274 279 271 257 260 262 265 261 251 242 257 270 281 286 287 290 292 296 300 300 303 307 309 308 306 304 305 309 314 317 320 323 327 329 329 331 333 333 334 333
191 193 184 224 218 212 249 220 264 270 274 269 251 249 265 275 279 283 283 285 289 293 295 301 305 305 303 300 301 304 312 316 318 321 323 325 327 329 329 329 327 329 329 329